Ouarzazate, Morocco

12:23 PM WET on June 24, 2017 (GMT +0000)
Ouarzazate

Weather History for GMMZ - May, 2013

Change the Weather History Date:

Tuesday, May 28, 2013

  Actual Average Record
Temperature  
Mean Temperature 72 °F -  
Max Temperature 86 °F 92 °F - ()
Min Temperature 57 °F 64 °F - ()
Cooling Degree Days 6    
Growing Degree Days 22 (Base 50)    
Moisture  
Dew Point 26 °F    
Average Humidity 18    
Maximum Humidity 28    
Minimum Humidity 5    
Precipitation  
Precipitation 0.00 in 0.00 in - ()
Sea Level Pressure  
Sea Level Pressure 29.86 in    
Wind  
Wind Speed 8 mph ()    
Max Wind Speed 33 mph    
Max Gust Speed -    
Visibility 8.8 miles    
Events      
T = Trace of Precipitation, MM = Missing Value Source: Averaged Metar Reports

Daily Weather History Graph

Daily Weather History Graph

Search for Another Location

Airport or City:

Trip Planner

Search our weather history database for the weather conditions in past years. The results will help you decide how hot, cold, wet, or windy it might be!

Date:

Astronomy

May. 28, 2013 Rise Set
Actual Time 6:25 AM WEST 8:24 PM WEST
Civil Twilight 5:58 AM WEST 8:51 PM WEST
Nautical Twilight 5:25 AM WEST 9:24 PM WEST
Astronomical Twilight 4:50 AM WEST 9:59 PM WEST
Moon 11:45 PM WEST (5/28) 9:52 AM WEST (5/28)
Length of Visible Light 14h 52m
Length of Day
13h 58m
Waning Gibbous, 85% of the Moon is Illuminated
May 28
Waning Gibbous
May 31
Last Quarter
Jun 8
New
Jun 16
First Quarter
Jun 23
Full

Hourly Weather History & Observations

Time (WEST) Temp. Dew Point Humidity Pressure Visibility Wind Dir Wind Speed Gust Speed Precip Events Conditions
12:00 AM 68.0 °F 26.6 °F 21% 29.86 in - WSW 11.5 mph - N/A   Clear
1:00 AM 67 °F 21 °F 9%  in 12 mi West 9.2 mph - -  
1:00 AM 64.4 °F 21.2 °F 19% 29.83 in - West 9.2 mph - N/A   Clear
3:00 AM 62.6 °F 19.4 °F 19% 29.83 in - West 6.9 mph - N/A   Clear
4:00 AM 62 °F 20 °F 10%  in 12 mi West 5.8 mph - -  
4:00 AM 62.6 °F 19.4 °F 19% 29.83 in - West 5.8 mph - N/A   Clear
5:00 AM 60.8 °F 24.8 °F 25% 29.83 in - Variable 1.2 mph - N/A   Clear
6:00 AM 57.2 °F 23.0 °F 27% 29.86 in - Variable 1.2 mph - N/A   Clear
7:00 AM 58 °F 25 °F 17%  in 12 mi Calm Calm - -  
7:00 AM 59.0 °F 24.8 °F 27% 29.86 in - Calm Calm - N/A   Clear
8:00 AM 60.8 °F 26.6 °F 27% 29.89 in - Variable 2.3 mph - N/A   Clear
9:00 AM 66.2 °F 26.6 °F 23% 29.89 in - Variable 3.5 mph - N/A   Clear
10:00 AM 71 °F 26 °F 9%  in 12 mi SW 1.2 mph - -  
10:00 AM 71.6 °F 26.6 °F 19% 29.92 in - Variable 1.2 mph - N/A   Clear
11:00 AM 77.0 °F 28.4 °F 17% 29.89 in - Variable 2.3 mph - N/A   Clear
12:00 PM 77.0 °F 28.4 °F 17% 29.89 in - Variable 3.5 mph - N/A   Clear
1:00 PM 80 °F 27 °F 7%  in 12 mi SE 1.2 mph - -  
1:00 PM 80.6 °F 26.6 °F 14% 29.86 in - Variable 1.2 mph - N/A   Clear
2:00 PM 82.4 °F 24.8 °F 12% 29.83 in 6.2 mi NW 5.8 mph - N/A   Partly Cloudy
3:00 PM 84.2 °F 24.8 °F 11% 29.80 in 6.2 mi East 11.5 mph - N/A   Partly Cloudy
4:00 PM 84 °F 24 °F 5%  in 12 mi NE 6.9 mph - -   Scattered Clouds
4:00 PM 84.2 °F 24.8 °F 11% 29.77 in 6.2 mi NE 6.9 mph - N/A   Partly Cloudy
5:00 PM 68.0 °F 23.0 °F 18% 29.77 in 6.2 mi NW 23.0 mph - N/A   Scattered Clouds
6:00 PM 80.6 °F 30.2 °F 16% 29.80 in 6.2 mi NW 17.3 mph - N/A   Scattered Clouds
7:00 PM 74 °F 32 °F 12%  in 12 mi NW 33.4 mph - -   Partly Cloudy
7:00 PM 73.4 °F 32.0 °F 22% 29.86 in 6.2 mi NW 33.4 mph - N/A   Partly Cloudy
8:00 PM 69.8 °F 32.0 °F 25% 29.86 in 6.2 mi NW 27.6 mph - N/A   Scattered Clouds
9:00 PM 68.0 °F 33.8 °F 28% 29.92 in 6.2 mi NW 25.3 mph - N/A   Scattered Clouds
10:00 PM 67 °F 30 °F 14%  in 12 mi West 12.7 mph - -   Scattered Clouds
10:00 PM 66.2 °F 30.2 °F 26% 29.95 in 6.2 mi West 12.7 mph - N/A   Partly Cloudy
11:00 PM 64.4 °F 28.4 °F 26% 29.98 in 6.2 mi West 16.1 mph - N/A   Partly Cloudy